Time,TemperatureF,DewpointF,PressureIn,WindDirection,WindDirectionDegrees,WindSpeedMPH,WindSpeedGustMPH,Humidity,HourlyPrecipIn,Conditions,Clouds,dailyrainin,SoftwareType,DateUTC
2013-11-03 00:12:00,36.0,22.0,30.13,SSW,195,1.0,4.0,56,0.00,,,0.00,,2013-11-03 06:12:00,
2013-11-03 00:23:00,38.0,22.0,30.13,SSE,165,1.0,10.0,52,0.00,,,0.00,,2013-11-03 06:23:00,
2013-11-03 00:43:00,38.0,22.0,30.12,SSW,198,4.0,10.0,51,0.00,,,0.00,,2013-11-03 06:43:00,
2013-11-03 00:52:00,39.0,22.0,30.12,WSW,240,8.0,12.0,51,0.00,,,0.00,,2013-11-03 06:52:00,
2013-11-03 01:11:00,39.0,19.0,30.12,SSW,209,7.0,10.0,45,0.00,,,0.00,,2013-11-03 07:11:00,
2013-11-03 01:22:00,40.0,19.0,30.11,SSW,211,5.0,9.0,43,0.00,,,0.00,,2013-11-03 07:22:00,
2013-11-03 01:42:00,40.0,20.0,30.11,SSW,212,4.0,7.0,44,0.00,,,0.00,,2013-11-03 07:42:00,
2013-11-03 01:52:00,39.0,19.0,30.11,SW,214,4.0,8.0,44,0.00,,,0.00,,2013-11-03 07:52:00,
2013-11-03 01:11:00,40.0,19.0,30.10,SSW,202,4.0,10.0,42,0.00,,,0.00,,2013-11-03 08:11:00,
2013-11-03 01:21:00,40.0,18.0,30.10,SW,215,5.0,10.0,41,0.00,,,0.00,,2013-11-03 08:21:00,
2013-11-03 01:42:00,40.0,18.0,30.09,South,174,4.0,7.0,41,0.00,,,0.00,,2013-11-03 08:42:00,
2013-11-03 01:52:00,40.0,19.0,30.09,SW,214,1.0,8.0,42,0.00,,,0.00,,2013-11-03 08:52:00,
2013-11-03 02:11:00,40.0,18.0,30.09,SW,218,4.0,8.0,41,0.00,,,0.00,,2013-11-03 09:11:00,
2013-11-03 02:21:00,39.0,18.0,30.08,South,175,4.0,8.0,43,0.00,,,0.00,,2013-11-03 09:21:00,
2013-11-03 02:53:00,41.0,19.0,30.06,South,172,3.0,6.0,41,0.00,,,0.00,,2013-11-03 09:53:00,
2013-11-03 03:13:00,41.0,19.0,30.05,South,183,3.0,8.0,41,0.00,,,0.00,,2013-11-03 10:13:00,
2013-11-03 03:22:00,40.0,19.0,30.04,SSW,198,1.0,3.0,43,0.00,,,0.00,,2013-11-03 10:22:00,
2013-11-03 03:42:00,39.0,19.0,30.04,SW,235,3.0,5.0,45,0.00,,,0.00,,2013-11-03 10:42:00,
2013-11-03 03:52:00,37.0,18.0,30.04,North,360,6.0,8.0,45,0.00,,,0.00,,2013-11-03 10:52:00,
2013-11-03 04:12:00,38.0,18.0,30.04,SW,229,7.0,9.0,43,0.00,,,0.00,,2013-11-03 11:12:00,
2013-11-03 04:22:00,39.0,18.0,30.04,NNE,30,1.0,8.0,43,0.00,,,0.00,,2013-11-03 11:22:00,
2013-11-03 04:43:00,38.0,19.0,30.05,NW,325,0.0,3.0,46,0.00,,,0.00,,2013-11-03 11:43:00,
2013-11-03 04:52:00,36.0,19.0,30.04,South,186,2.0,10.0,49,0.00,,,0.00,,2013-11-03 11:52:00,
2013-11-03 05:12:00,35.0,18.0,30.04,SSW,192,2.0,6.0,50,0.00,,,0.00,,2013-11-03 12:12:00,
2013-11-03 05:21:00,35.0,18.0,30.04,SW,220,2.0,7.0,49,0.00,,,0.00,,2013-11-03 12:21:00,
2013-11-03 05:41:00,34.0,17.0,30.04,SSE,167,1.0,4.0,49,0.00,,,0.00,,2013-11-03 12:41:00,
2013-11-03 05:52:00,34.0,17.0,30.04,South,175,5.0,9.0,49,0.00,,,0.00,,2013-11-03 12:52:00,
2013-11-03 06:11:00,35.0,19.0,30.04,SSW,202,2.0,7.0,51,0.00,,,0.00,,2013-11-03 13:11:00,
2013-11-03 06:21:00,35.0,18.0,30.04,South,180,4.0,8.0,49,0.00,,,0.00,,2013-11-03 13:21:00,
2013-11-03 06:42:00,38.0,18.0,30.03,South,182,1.0,8.0,43,0.00,,,0.00,,2013-11-03 13:42:00,
2013-11-03 06:52:00,39.0,17.0,30.02,SSW,198,6.0,7.0,41,0.00,,,0.00,,2013-11-03 13:52:00,
2013-11-03 07:11:00,39.0,16.0,30.02,SSW,201,4.0,9.0,39,0.00,,,0.00,,2013-11-03 14:11:00,
2013-11-03 09:43:00,46.0,23.0,30.02,SSW,200,2.0,11.0,40,0.00,,,0.00,,2013-11-03 16:43:00,
2013-11-03 09:53:00,46.0,22.0,30.01,South,169,2.0,10.0,39,0.00,,,0.00,,2013-11-03 16:53:00,
2013-11-03 10:22:00,47.0,24.0,30.01,SSW,211,1.0,9.0,40,0.00,,,0.00,,2013-11-03 17:22:00,
2013-11-03 10:43:00,48.0,24.0,30.01,South,189,3.0,12.0,39,0.00,,,0.00,,2013-11-03 17:43:00,
2013-11-03 10:52:00,48.0,24.0,30.00,SE,140,6.0,9.0,39,0.00,,,0.00,,2013-11-03 17:52:00,
2013-11-03 11:11:00,49.0,25.0,29.99,WNW,285,1.0,13.0,38,0.00,,,0.00,,2013-11-03 18:11:00,
2013-11-03 11:23:00,51.0,25.0,29.98,SSE,155,1.0,7.0,36,0.00,,,0.00,,2013-11-03 18:23:00,
2013-11-03 12:11:00,52.0,25.0,29.96,SSE,168,11.0,29.0,35,0.00,,,0.00,,2013-11-03 19:11:00,
2013-11-03 12:42:00,52.0,26.0,29.95,North,360,7.0,18.0,36,0.00,,,0.00,,2013-11-03 19:42:00,
2013-11-03 12:53:00,52.0,27.0,29.94,SSW,196,6.0,20.0,37,0.00,,,0.00,,2013-11-03 19:53:00,
2013-11-03 13:11:00,51.0,26.0,29.93,WSW,253,15.0,27.0,37,0.00,,,0.00,,2013-11-03 20:11:00,
2013-11-03 13:22:00,51.0,26.0,29.93,SW,222,15.0,34.0,37,0.00,,,0.00,,2013-11-03 20:22:00,
2013-11-03 13:42:00,51.0,26.0,29.91,North,360,10.0,35.0,37,0.00,,,0.00,,2013-11-03 20:42:00,
2013-11-03 13:52:00,50.0,25.0,29.90,WSW,245,20.0,37.0,38,0.00,,,0.00,,2013-11-03 20:52:00,
2013-11-03 14:11:00,50.0,26.0,29.90,SW,225,21.0,37.0,39,0.00,,,0.00,,2013-11-03 21:11:00,
2013-11-03 14:21:00,49.0,25.0,29.90,WSW,251,20.0,32.0,38,0.00,,,0.00,,2013-11-03 21:21:00,
2013-11-03 14:43:00,49.0,24.0,29.91,SW,232,21.0,33.0,37,0.00,,,0.00,,2013-11-03 21:43:00,
2013-11-03 14:54:00,49.0,24.0,29.91,SSW,192,19.0,35.0,37,0.00,,,0.00,,2013-11-03 21:54:00,
2013-11-03 15:12:00,50.0,23.0,29.92,WSW,239,16.0,32.0,35,0.00,,,0.00,,2013-11-03 22:12:00,
2013-11-03 15:22:00,50.0,21.0,29.93,South,184,12.0,25.0,32,0.00,,,0.00,,2013-11-03 22:22:00,
2013-11-03 15:43:00,49.0,20.0,29.94,SW,224,8.0,26.0,32,0.00,,,0.00,,2013-11-03 22:43:00,
2013-11-03 15:52:00,48.0,20.0,29.95,North,360,14.0,29.0,33,0.00,,,0.00,,2013-11-03 22:52:00,
2013-11-03 16:12:00,47.0,20.0,29.95,SW,224,10.0,21.0,34,0.00,,,0.00,,2013-11-03 23:12:00,
2013-11-03 16:23:00,49.0,20.0,29.95,SSW,206,12.0,29.0,31,0.00,,,0.00,,2013-11-03 23:23:00,
2013-11-03 16:42:00,48.0,20.0,29.95,SSW,213,11.0,20.0,33,0.00,,,0.00,,2013-11-03 23:42:00,
2013-11-03 16:53:00,47.0,19.0,29.95,SSW,204,2.0,11.0,33,0.00,,,0.00,,2013-11-03 23:53:00,
2013-11-03 17:11:00,47.0,16.0,29.95,North,360,7.0,17.0,29,0.00,,,0.00,,2013-11-04 00:11:00,
2013-11-03 17:22:00,46.0,16.0,29.95,SW,231,6.0,16.0,30,0.00,,,0.00,,2013-11-04 00:22:00,
2013-11-03 17:42:00,45.0,14.0,29.95,North,360,13.0,19.0,28,0.00,,,0.00,,2013-11-04 00:42:00,
2013-11-03 17:52:00,45.0,14.0,29.95,SW,217,6.0,21.0,28,0.00,,,0.00,,2013-11-04 00:52:00,
2013-11-03 18:22:00,43.0,14.0,29.96,SW,229,7.0,14.0,30,0.00,,,0.00,,2013-11-04 01:22:00,
2013-11-03 18:42:00,43.0,14.0,29.95,North,360,9.0,19.0,30,0.00,,,0.00,,2013-11-04 01:42:00,
2013-11-03 18:52:00,43.0,14.0,29.95,SSW,211,11.0,21.0,31,0.00,,,0.00,,2013-11-04 01:52:00,
2013-11-03 19:12:00,43.0,15.0,29.95,West,260,8.0,17.0,32,0.00,,,0.00,,2013-11-04 02:12:00,
2013-11-03 19:21:00,42.0,14.0,29.96,SSW,206,6.0,19.0,32,0.00,,,0.00,,2013-11-04 02:21:00,
2013-11-03 19:42:00,42.0,15.0,29.96,SW,221,8.0,20.0,33,0.00,,,0.00,,2013-11-04 02:42:00,
2013-11-03 19:52:00,42.0,16.0,29.98,WNW,300,7.0,15.0,35,0.00,,,0.00,,2013-11-04 02:52:00,
2013-11-03 20:11:00,41.0,21.0,30.00,North,360,11.0,18.0,45,0.00,,,0.00,,2013-11-04 03:11:00,
2013-11-03 20:21:00,40.0,24.0,30.01,NW,310,5.0,16.0,52,0.00,,,0.00,,2013-11-04 03:21:00,
2013-11-03 20:44:00,39.0,25.0,30.02,West,274,3.0,15.0,58,0.00,,,0.00,,2013-11-04 03:44:00,
2013-11-03 20:54:00,38.0,25.0,30.03,WNW,282,0.0,1.0,59,0.00,,,0.00,,2013-11-04 03:54:00,
2013-11-03 21:13:00,37.0,24.0,30.04,WNW,282,0.0,1.0,60,0.00,,,0.00,,2013-11-04 04:13:00,
2013-11-03 21:23:00,36.0,24.0,30.04,WNW,282,0.0,0.0,62,0.00,,,0.00,,2013-11-04 04:23:00,
2013-11-03 21:43:00,35.0,26.0,30.05,WNW,299,0.0,5.0,69,0.00,,,0.00,,2013-11-04 04:43:00,
2013-11-03 21:52:00,35.0,28.0,30.06,NW,320,0.0,5.0,74,0.00,,,0.00,,2013-11-04 04:52:00,
2013-11-03 22:13:00,34.0,28.0,30.06,NW,319,0.0,4.0,77,0.00,,,0.00,,2013-11-04 05:13:00,
2013-11-03 22:23:00,34.0,28.0,30.06,NW,319,0.0,0.0,77,0.00,,,0.00,,2013-11-04 05:23:00,
2013-11-03 22:44:00,34.0,28.0,30.06,NW,319,0.0,0.0,78,0.00,,,0.00,,2013-11-04 05:44:00,
2013-11-03 22:53:00,33.0,27.0,30.06,NW,319,5.0,15.0,79,0.00,,,0.00,,2013-11-04 05:53:00,
2013-11-03 23:12:00,32.0,27.0,30.06,North,351,4.0,8.0,80,0.00,,,0.00,,2013-11-04 06:12:00,
2013-11-03 23:22:00,31.0,26.0,30.06,NNW,340,2.0,5.0,82,0.00,,,0.00,,2013-11-04 06:22:00,
2013-11-03 23:42:00,30.0,25.0,30.06,NW,309,1.0,7.0,82,0.00,,,0.00,,2013-11-04 06:42:00,
2013-11-03 23:52:00,30.0,25.0,30.06,NNW,330,1.0,4.0,81,0.00,,,0.00,,2013-11-04 06:52:00,